Qianfan Jigui 01-03

operational
NORAD ID: 60381 Int'l Des: 2024-140 Owner: YUANX Country: CN Constellation: qianfan
LEOCIRCULARPOLAR

About Qianfan Jigui 01-03

Description loading...

Live Position

Loading 3D Globe...

Upcoming Passes

Altitude History

Altitude vs Time

uPlot chart will show altitude changes over time

Two-Line Element Set

1 60381U 24140C 26063.12572115 .00000099 00000-0 13545-3 0 9999
2 60381 88.9698 290.8179 0013216 331.9011 28.1426 13.50999315 78301
Epoch: Mar 4, 2026 • Age: 11 hours

Current Status

Altitude 1087.8 km
Velocity 7.31 km/s
Sub-Earth Point 64.18°N, 145.97°E
Launch Date Aug 6, 2024
Age 1.5 years
Type internet

Technical Details

Classification Payload
Mass 267.00 kg
Dry Mass 267.00 kg
Total Mass 267.00 kg
Length 0.30 m
Diameter 3.00 m
Span 10.00 m
Shape Box+pan
Manufacturer SECM
Bus Type Qianfan
Phase Status In Orbit
Owner/State YUANX/CN

Large Constellations

Loading constellations...